Observer details:
F51 Pan-STARRS 1, Haleakala.  Observers J. Bulger, T. Lowe, P. Minguez, A.
    Schultz, I. Smith.  Measurers K. Chambers, T. de Boer, J. Fairlamb, H.
    Gao, M. Huber, E. Lilly, C.-C. Lin, E. Magnier, Y. Ramanjooloo, R.
    Wainscoat, R. Weryk.  1.8-m Ritchey-Chretien + CCD.
F52 Pan-STARRS 2, Haleakala.  Observers J. Bulger, T. Lowe, P. Minguez, A.
    Schultz, I. Smith.  Measurers K. Chambers, T. de Boer, J. Fairlamb, H.
    Gao, M. Huber, C.-C. Lin, E. Magnier, Y. Ramanjooloo, R. Wainscoat, R.
    Weryk.  1.8-m Ritchey-Chretien + CCD.

Orbital elements:
2014 GQ101                                                                      
Epoch 2023 Sept. 13.0 TT = JDT 2460200.5                Alexandersen            
M   0.32626              (2000.0)            P               Q                  
n   0.00008797     Peri.  153.28802     -0.81492698     -0.57210736             
a 500.7080312      Node     9.89596     -0.57941861     +0.80066461             
e   0.9696893      Incl.  147.37066     +0.01296482     -0.17784644             
P    11204         H   10.56          G   0.15           U   6                  
Residuals in seconds of arc
130417 F51  0.1-  0.0     160115 F51  0.1+  0.6+    170327 F51  0.0   0.2+
130417 F51  0.3-  0.2+    160115 F51  0.0   0.1-    170327 F51  0.1-  0.1-
130417 F51  0.1-  0.0     160310 F51  0.1+  0.1-    170327 F51  0.0   0.0
130417 F51  0.2+  0.2-    160310 F51  0.0   0.1+    170420 F51  0.0   0.3+
140404 F51  0.0   0.1-    160310 F51  0.1+  0.1+    170420 F51  0.0   0.3+
140404 F51  0.0   0.0     160310 F51  0.0   0.0     170420 F51  0.1+  0.1+
140404 F51  0.3+  0.3+    160311 F51  0.3-  0.0     170420 F51  0.2-  0.2+
140404 F51  0.1-  0.1+    160311 F51  0.0   0.1+    170428 F51  0.1+  0.2+
140430 F51  0.0   0.1-    160311 F51  0.2+  0.1-    190108 F51  0.0   0.0
140430 F51  0.0   0.1-    160311 F51  0.2+  0.3+    190108 F51  0.0   0.1-
140430 F51  0.1+  0.0     160313 F51  0.1+  0.0     190108 F51  0.2+  0.0
140430 F51  0.2+  0.0     160313 F51  0.0   0.1-    190108 F51  0.0   0.1+
140518 F51  0.3-  0.2+    160313 F51  0.1-  0.1+    190112 F51  0.1-  0.1+
140518 F51  0.3-  0.3+    160313 F51  0.1-  0.3-    190112 F51  0.1-  0.1+
140518 F51  0.0   0.2+    160401 F51  0.0   0.1+    190112 F51  0.1+  0.0
140524 F51  0.1+  0.3-    160401 F51  0.0   0.1-    190116 F52  0.1-  0.2+
140524 F51  0.2-  0.2-    160402 F51  0.3-  0.1-    190205 F51  0.0   0.0
140524 F51  0.1+  0.0     160402 F51  0.0   0.1+    190205 F51  0.1+  0.1+
140524 F51  0.1+  0.1-    160402 F51  0.1+  0.1-    190205 F51  0.3+  0.1-
140617 F51  0.1+  0.2-    160402 F51  0.1-  0.0     190205 F51  0.1-  0.2-
140617 F51  0.1-  0.3-    160410 F51  0.1-  0.0     190208 F52  0.2-  0.0
140617 F51  0.1+  0.2+    160410 F51  0.2-  0.0     190404 F51  0.0   0.1-
140701 F51  0.0   0.0     160410 F51  0.0   0.1+    190602 F52  0.2+  0.2-
140701 F51  0.0   0.0     160410 F51  0.0   0.0     200101 F51  0.0   0.2-
140701 F51  0.1-  0.0     160410 F51  0.0   0.2+    200101 F51  0.0   0.2+
140701 F51  0.0   0.2-    160410 F51  0.0   0.3-    200101 F51  0.3+  0.1+
150123 F51  0.1+  0.1+    160504 F51  0.2-  0.0     200101 F51  0.1-  0.2-
150123 F51  0.0   0.1-    160504 F51  0.0   0.4-    201222 F51  0.0   0.1+
150123 F51  0.2+  0.2-    170126 F51  0.1-  0.1+    210108 F51  0.2+  0.1-
150125 F51  0.0   0.1-    170126 F51  0.4-  0.1+    210115 F51  0.1-  0.1+
150125 F51  0.0   0.1-    170126 F51  0.1-  0.2-    210217 F52  0.2+  0.4-
150125 F51  0.0   0.2-    170126 F51  0.1+  0.2+    210403 F51  0.3-  0.0
150125 F51  0.1-  0.2-    170221 F51  0.2+  0.0     210414 F51  0.1+  0.0
150321 F51  0.0   0.0     170221 F51  0.0   0.0     210414 F51  0.1-  0.1+
150321 F51  0.0   0.1+    170221 F51  0.0   0.2-    210414 F51  0.0   0.2+
150321 F51  0.2-  0.0     170221 F51  0.3-  0.0     210414 F51  0.0   0.1-
150321 F51  0.3+  0.2+    170319 F51  0.3-  0.0     211216 F52  0.1+  0.1+
150420 F51  0.2+  0.0     170319 F51  0.0   0.0     220228 F52  0.0   0.2+
150420 F51  0.2+  0.2+    170319 F51  0.2-  0.0     220408 F52  0.2-  0.3-
150420 F51  0.2+  0.0     170319 F51  0.1-  0.1+    230319 F52  0.1+  0.1-
150421 F51  0.2+  0.1+    170327 F51  0.2+  0.2-

Ephemeris:
2014 GQ101               a,e,i = 500.71, 0.97, 147               q = 15.1768
Date    TT    R. A. (2000) Decl.     Delta      r    Elong.  Phase     V
2023 09 11    09 58 29.4 -08 32 36  22.6280 21.7065    23.3     1.0    24.2
...
2023 09 26    09 59 59.3 -08 51 07  22.5832 21.7487    33.0     1.4    24.2
...
2023 10 04    10 00 39.2 -09 01 34  22.5369 21.7712    39.2     1.7    24.2
...
2023 10 10    10 01 04.5 -09 09 32  22.4927 21.7881    44.2     1.8    24.2
2023 10 11    10 01 08.3 -09 10 52  22.4846 21.7909    45.1     1.9    24.2
2023 10 12    10 01 12.0 -09 12 12  22.4763 21.7937    45.9     1.9    24.2
...
2023 10 18    10 01 31.2 -09 20 13  22.4223 21.8107    51.1     2.0    24.2
...
2023 10 26    10 01 48.8 -09 30 47  22.3401 21.8332    58.3     2.2    24.3
...
2023 11 10    10 01 54.6 -09 49 41  22.1610 21.8756    72.0     2.5    24.3

M. P. C. Staff               (C) Copyright 2023 MPC           M.P.E.C. 2023-T163





More information about the Iaude mailing list